Location: Mentone
(34.5413°N, 85.5351°W)
Time: 05:19:25
(UTC-05:00)

Tiros 1 despin weight - Visible Passes

Search period start: 23 March 2017 00:00
Search period end: 02 April 2017 00:00
Orbit: 596 x 644 km, 48.2° (Epoch: 21 March)

Date Brightness Start Highest point End Pass type
(mag) Time Alt. Az. Time Alt. Az. Time Alt. Az.
23 Mar ? 03:54:32 22° ENE 03:54:32 22° ENE 03:56:11 10° ENE visible
23 Mar ? 05:31:37 20° WNW 05:33:38 28° NNW 05:37:26 10° NE visible
24 Mar ? 04:10:51 31° NE 04:10:51 31° NE 04:13:16 10° NE visible
24 Mar ? 05:47:57 10° WNW 05:51:03 19° NNW 05:54:15 10° NNE visible
25 Mar ? 04:27:07 31° N 04:27:07 31° N 04:30:09 10° NE visible
25 Mar ? 06:06:02 10° NW 06:08:37 15° N 06:11:12 10° NNE visible
26 Mar ? 04:43:20 23° NNW 04:43:24 23° NNW 04:46:57 10° NNE visible
27 Mar ? 03:22:26 12° NE 03:22:26 12° NE 03:22:51 10° NE visible
27 Mar ? 04:59:30 15° NW 05:00:54 17° NNW 05:03:48 10° NNE visible
28 Mar ? 03:38:35 16° NNE 03:38:35 16° NNE 03:39:41 10° NE visible
28 Mar ? 05:16:07 10° NW 05:18:30 14° N 05:20:52 10° NNE visible
29 Mar ? 03:54:42 17° N 03:54:42 17° N 03:56:29 10° NNE visible
29 Mar ? 05:33:51 10° NNW 05:36:08 14° N 05:38:26 10° NE visible
30 Mar ? 04:10:50 15° N 04:10:50 15° N 04:13:24 10° NNE visible
30 Mar ? 05:51:04 10° NNW 05:53:45 16° N 05:56:27 10° NE visible
31 Mar ? 04:26:57 12° NNW 04:28:23 14° N 04:30:40 10° NNE visible
01 Apr ? 03:06:01 10° NNE 03:06:01 10° NNE 03:06:02 10° NNE visible
01 Apr ? 04:43:34 10° NNW 04:46:01 14° N 04:48:27 10° NE visible
